User: anonymous   Login
Location: Isola Pescaroli
(45.0500°N, 10.1667°E)
Time: 19:46:18
(UTC+00:00)
Language:

Cosmos 1633 Rocket - Orbit

View from above orbital plane
View from above orbital plane
View from above satellite
View from above satellite

Ground track
Ground track

The orbit data is extracted from the following two-line orbital elements,

1 15593U 85020B   21136.15015379  .00000075  00000-0  60578-5 0  9995
2 15593  82.5393   5.3402 0011760   7.5358 352.6032 14.84429373935184
Epoch (UTC): 16 May 2021 03:36:13
Eccentricity: 0.0011760
inclination: 82.5393°
perigee height: 607 km
apogee height: 623 km
right ascension of ascending node: 5.3402°
argument of perigee: 7.5358°
revolutions per day: 14.84429373
mean anomaly at epoch: 352.6032°
orbit number at epoch: 93518

The dashed part of the orbit path shows where the satellite is in the earth's shadow,  

DLR